Regional Weather Roundup
Issued by NWS Wakefield, VA

Home | Current Version | Previous Version | Graphics & Text | Print | Product List | Glossary On
Versions: 1 2 3 4 5 6 7 8 9 10 11 12 13 14 15 16 17 18 19 20 21 22 23 24 25 26 27 28 29 30 31 32 33 34 35 36 37 38 39 40 41 42 43 44 45 46 47 48 49 50
000
ASUS41 KAKQ 041314
RWRAKQ

REGIONAL WEATHER ROUNDUP
NATIONAL WEATHER SERVICE WAKEFIELD VA
900 AM EDT FRI SEP 04 2015

Note: "fair" indicates few or no clouds below 12,000 feet with no
significant weather and/or obstructions to visibility. * = Denotes
station may not report precipitation (e.g., rain,snow,etc.),
thunder or fog.

VAZ042-051-052>054-056-041400-
NORTHERN VIRGINIA

CITY           SKY/WX    TMP DP  RH WIND       PRES   REMARKS
WASH NATIONAL  PTSUNNY   81  69  67 N8        30.00R
DULLES         MOSUNNY   79  68  69 N8        30.01R
FORT BELVOIR   SUNNY     79  69  71 NW5       29.99R
QUANTICO       MOSUNNY   81  68  64 N7        29.99S
FREDERICKSBRG* SUNNY     77  70  77 NW7       29.99R
STAFFORD*      SUNNY     79  69  69 N6        30.03S
WARRENTON      SUNNY     80  73  77 NE3       30.00F
CULPEPER*      SUNNY     76  70  80 N3        30.01S
MANASSAS*      SUNNY     79  72  78 N7        30.00R
LEESBURG*      SUNNY     81  72  74 N8        30.03S
WINCHESTER     SUNNY     73  70  88 CALM      30.05R HAZE
FRONT ROYAL*   FAIR      72  70  94 CALM      30.05R
LURAY*         FAIR      68  68 100 S3        30.06S FOG
$$

VAZ048-049-060>072-079>083-041400-
CENTRAL AND SOUTH CENTRAL VIRGINIA

CITY           SKY/WX    TMP DP  RH WIND       PRES   REMARKS
RICHMOND       MOSUNNY   80  70  71 N8        29.98R
CHESTERFIELD*  FAIR      79  63  57 NE3       29.99R
PETERSBURG*    SUNNY     79  75  87 CALM      29.99R
HANOVER        MOSUNNY   78  70  76 CALM      30.00R
TAPPAHANNOCK*  SUNNY     79  72  79 CALM      29.98S
QUINTON*       FAIR      76  72  86 CALM      29.97R
CHARLOTTSVILLE SUNNY     78  69  73 CALM      30.02R
GORDONSVILLE*  FAIR      80  70  71 NE5       30.00S
ORANGE*        MOSUNNY   79  70  73 N7        30.02S
LOUISA*        SUNNY     79  70  73 N8        30.00S
BUMPASS*       FAIR      77  70  79 N6        30.00S
FARMVILLE*     SUNNY     80  68  67 CALM      30.00R
CREWE*         FAIR     N/A N/A N/A N5        30.00R
FORT PICKETT*  FAIR      77  69  75 N6        29.99S
CHASE CITY*    FAIR      78  75  90 CALM      30.00R
CLARKSVILLE*   FAIR      73  72  94 N3        29.99R
SOUTH HILL*    SUNNY     77  70  81 CALM      30.04S
LAWRENCEVILLE* FAIR      77  72  83 N3        29.99R
EMPORIA*       SUNNY     73  70  88 NW3       29.99R
$$

VAZ088>098-041400-
SOUTHEAST VIRGINIA

CITY           SKY/WX    TMP DP  RH WIND       PRES   REMARKS
NORFOLK        SUNNY     82  75  79 N8        29.95R HAZE
VIRGINIA BEACH MOSUNNY   87  73  62 N9        29.94R
NORFOLK NAVAL  MOSUNNY   83  75  77 N8        29.97R HAZE
WEST POINT*    SUNNY     79  73  82 CALM      29.98S
SALUDA*        FAIR      79  74  82 N5        29.96S
NEWPORT NEWS   SUNNY     82  72  71 NE7       29.96R
LANGLEY AFB    SUNNY     82  74  79 N7        29.95R
FORT EUSTIS    SUNNY     82  82 100 VRB2      29.94R HX  95
WILLIAMSBURG*  SUNNY     81  79  94 CALM      29.97R
HR EXEC AP*      N/A     77  73  88 CALM      29.97S
FRANKLIN*      NOT AVBL
WAKEFIELD      SUNNY     79  72  79 CALM      29.97R HAZE
$$

VAZ020-022-025-037-045-041400-
WEST CENTRAL AND SOUTHWEST VIRGINIA

CITY           SKY/WX    TMP DP  RH WIND       PRES   REMARKS
STAUNTON*      SUNNY     71  69  93 CALM      30.09S
WAYNESBORO*    FAIR      72  67  83 CALM      30.09S
HOT SPRINGS VA SUNNY     71  62  75 N7        30.19R
LYNCHBURG      SUNNY     77  67  71 N6        30.05R
DANVILLE       SUNNY     78  69  73 NE5       30.01R
SOUTH BOSTON*  FAIR      75  70  85 CALM      30.00S
MARTINSVILLE   SUNNY     76  73  88 CALM      30.05S
ROANOKE        SUNNY     74  67  78 CALM      30.08R
BLACKSBURG     SUNNY     71  68  92 CALM      30.14S
DUBLIN*        CLOUDY    73  68  84 CALM      30.13R
MARION*        SUNNY     69  65  88 CALM      30.17R FOG
HILLSVILLE*    SUNNY     69  64  85 N3        30.13R
RICHLANDS*     FAIR      67  39  35 CALM      30.16R
WISE*          SUNNY     73  68  83 CALM      30.17R
ABINGDON*      SUNNY     71  66  84 SE5       30.12S
$$

MDZ021>025-VAZ099-100-041400-
SOUTHERN MARYLAND AND THE DELMARVA PENINSULA

CITY           SKY/WX    TMP DP  RH WIND       PRES   REMARKS
PATUXENT RIVER MOSUNNY   81  74  79 N3        29.97R HAZE
BAY BRIDGE APT   N/A     77  72  83 NE5       29.98R
LEONARDTOWN    NOT AVBL
DOVER          MOSUNNY   78  78 100 E8        29.98R
GEORGETOWN     SUNNY     79  72  79 E9        29.99R HAZE
EASTON         SUNNY     77  77 100 NE5       30.02R FOG
CAMBRIDGE        N/A     77  72  83 E3        29.97R
SALISBURY      SUNNY     77  73  87 NE5       29.97R FOG
OCEAN CITY     MOSUNNY   79  75  87 E8        29.97R
WALLOPS ISLAND PTSUNNY   80  77  90 E7        29.97R FOG
ACCOMACK*      SUNNY    N/A N/A N/A NE7       29.96R
$$

NCZ012>017-030>032-041400-
NORTH CENTRAL AND EASTERN NORTH CAROLINA

CITY           SKY/WX    TMP DP  RH WIND       PRES   REMARKS
ROANOKE RAPIDS FAIR      75  72  88 CALM      29.98R
RALEIGH        MOSUNNY   77  70  79 CALM      29.99R
ELIZABETH CITY SUNNY     77  74  90 SW3       29.95R
AHOSKIE*       SUNNY     76  72  87 CALM      29.97R
EDENTON*       SUNNY     77  72  83 CALM      29.96R
CURRITUCK*     SUNNY     77  72  84 CALM      29.95S
KILL DEVIL HLS SUNNY     82  76  81 NW5       29.94S
MANTEO         SUNNY     80  75  84 NW6       29.95S
CAPE HATTERAS  PTSUNNY   81  73  76 VRB5      29.96R
TARBORO*       FAIR      77  72  84 CALM      29.98S
GOLDSBORO      SUNNY     78  73  84 VRB1      29.96R
WASHINGTON     SUNNY     77  72  83 N5        29.97R
GREENVILLE     SUNNY     77  73  88 CALM      29.99R FOG
NEW BERN       SUNNY     79  73  82 CALM      29.98R
WILMINGTON     SUNNY     78  73  84 N3        29.96R
$$

VAZ048-041400-
ELSEWHERE

CITY           SKY/WX    TMP DP  RH WIND       PRES   REMARKS
HARRISBURG PA  SUNNY     78  69  73 NW6       30.03R
BALTIMORE      MOSUNNY   81  68  64 N3        29.99R
ANNAPOLIS      SUNNY     80  73  79 N3        29.98R
ANDREWS AFB    SUNNY     79  69  71 N9        29.99R
PHILADELPHIA   MOSUNNY   82  68  62 NE9       30.01R
HENDERSON NC   SUNNY     75  69  79 N3        30.00R
GREENSBORO     SUNNY     78  67  68 N6        30.02R
ROCKY MOUNT    SUNNY     77  70  79 N3        29.98R HAZE
$$

VAZ100-041400-
MARINE

STATION/POSITION TIME  TEMP    WIND        PRES    WAVE   SWELL
                       AIR SEA DIR/SP/G            HT/PER HT/PER
                 (UTC) (F)     (DEG/KT/KT) (MB)    (FT/S) (FT/S)
BRANDYWINE LGT   1200   76 77   80/  7/  9 1015.4R
CAPE MAY NJ      1200   76 80   80/  5/  7 1014.8R
LEWES DE         1200   77 77   90/  6/  8 1014.9R
15NM E FENWICK I 1250   79 80   50/ 10/ 12 1015.2R
OCEAN-CITY-INLET 1200   78 78   80/  3/  5 1013.9R
GOOSES REEF MD   1300   80 80   30/  6/  8 1016.0R
COVE POINT MD    1200   79      20/  6/  8 1015.2R
SOLOMONS ISLAND  1200      82                N/A
BISHOPS HEAD MD  1200   80 82   40/  3/  5 1013.5R
PINEY POINT MD   1205           10/  4/  5   N/A
POTOMAC MD       1300   81 80   50/  6/  6 1013.6R   0
CAMBRIDGE MD     1200   77 82   60/  4/  5 1013.7R
LEWISETTA VA     1200   78 82  330/  2/  2 1014.0R
RAPPAHANNOCK LGT 1200           20/  8/  9 1014.6R
STINGRAY PT      1300   81 81   40/  6/  8 1014.9R
YORK RVR RNG VA  1218   79      30/  8/ 10 1013.6R
JAMESTOWN VA     1300   78 82  290/  2/  4   N/A
DOMINION TERM VA 1200   79      10/  3/  5 1013.8R
KIPTOPEKE VA     1200      80   40/  5/  8   N/A
CHES BAY BRIDGE  1200   80 80  350/  6/  7 1013.3R
CAPE HENRY VA    1200   79     340/  4/  5   N/A
CHESAPEAKE LGHT  1200   79     340/  9/ 10 1014.5R
WILLOUBY STN VA  1200   79     350/  5/  5 1014.8R
CAPE HENRY BUOY  1228      80                N/A     1/11
1ST LANDING BUOY 1300      80              1013.9R   1
CAPE CHARLES BUO 1226      79                N/A     1/12   2/12
OFFSHORE WE BUOY 1211      80                N/A     1/12   2/12
64NM E OF VA BCH 1250   79 79  320/  4/  4 1013.5R   1/12   2/12
DUCK PIER NC     1200   78 80  310/  4/  5 1013.0R
44100 DUCK FRF   1224      80                N/A     1/11
44056 DUCK FRF   1211      79                N/A     1/12
OREGON INLET NC  1200   79 82  290/  4/  6 1013.7R
HATTERAS NC      1200   81 83  320/  9/ 10 1013.5R
DIAMOND SHLS NC  1250   82 85  340/  8/ 10 1014.1R   1/ 9   2/ 9
CAPE LOOKOUT NC  1300   80     330/  4/  5 1014.2R
$$



USA.gov is the U.S. government's official web portal to all federal, state and local government web resources and services.